All Starts

As of 12.13.17

John R. Velazquez

Add To
Virtual Stable
Back to Profile

All Starts in Thoroughbred Races

Track Date Race Race Type Purse Horse Name Finish Chart Video
CRC 01/01/2011 6 Claiming $10,200 Sadler Power 3
CRC 01/01/2011 10 Stage Door Betty Handicap (Gr. 3) $100,000 Quiet Temper 6
CRC 01/01/2011 11 Tropical Park Derby $100,000 Tag V Eye 9
CRC 01/02/2011 6 Maiden Special Weight $28,000 Stormberg 2
CRC 01/02/2011 10 Maiden Special Weight $28,000 Extraextraordinary 2
CRC 01/04/2011 7 Allowance Optional Claiming $28,000 Codeword (IRE) 4
GP 01/05/2011 5 Allowance $51,500 Romans Reward 12
GP 01/05/2011 6 Maiden Special Weight $48,500 Miss Smarty Pants 2
GP 01/05/2011 9 Maiden Claiming $36,500 Top Business 5
GP 01/06/2011 3 Maiden Special Weight $48,500 Travelin Man 1
GP 01/06/2011 4 Claiming $18,500 Smart Kiddo 3
GP 01/06/2011 8 Allowance Optional Claiming $55,000 Poni Colada 7
GP 01/06/2011 9 Maiden Claiming $36,500 Blue Samurai 5
GP 01/07/2011 2 Claiming $15,000 Certifiably Royal 6
GP 01/07/2011 6 Allowance Optional Claiming $55,000 Zermatt 3
GP 01/07/2011 7 Maiden Special Weight $48,500 Gift List 8
GP 01/07/2011 8 Allowance $51,500 Hammock Beach 6
GP 01/07/2011 9 Claiming $28,000 Redfoxey Dorothy 2
GP 01/08/2011 5 Allowance $51,500 Bank Heist 3
GP 01/08/2011 6 Maiden Special Weight $48,500 Joe Vann 7
GP 01/08/2011 7 Spectacular Bid Stakes $100,000 Winchill 6
GP 01/08/2011 8 Allowance Optional Claiming $57,000 Vanquisher 6
GP 01/08/2011 9 Hal's Hope Stakes (Gr. 3) $100,000 Morning Line 3
GP 01/09/2011 1 Claiming $31,000 Tempest Storm 2
GP 01/09/2011 2 Allowance $51,500 Carrington Village 2
GP 01/09/2011 4 Maiden Claiming $31,500 Just Say Goodbye 1
GP 01/09/2011 6 Claiming $41,000 Written in Stone 1
GP 01/09/2011 8 Ft. Lauderdale Stakes (Gr. 3) $100,000 Souper Spectacular 4
GP 01/09/2011 9 Marshua's River Stakes (Gr. 3) $100,000 Trip for A. J. 5
GP 01/09/2011 10 Maiden Special Weight $48,500 Praetereo 6
GP 01/12/2011 2 Allowance $51,500 Dad's Crazy 3
GP 01/12/2011 3 Claiming $15,000 Sadler Power 2
GP 01/12/2011 5 Allowance $51,500 Razmataz 1
GP 01/12/2011 8 Allowance Optional Claiming $57,000 Romin Robin 2
GP 01/13/2011 1 Maiden Claiming $15,000 Barry K 8
GP 01/13/2011 2 Maiden Claiming $24,000 Goodwood Gal 5
GP 01/13/2011 5 Claiming $31,000 Sin Freno 5
GP 01/13/2011 6 Claiming $26,000 Wild Expectations 7
GP 01/13/2011 7 Maiden Special Weight $48,500 My Redbyrd 3
GP 01/13/2011 9 Claiming $28,000 History Ahead 11
GP 01/14/2011 1 Maiden Claiming $15,000 No Influence 8
GP 01/14/2011 3 Maiden Claiming $21,500 Chief Thundercloud 10
GP 01/14/2011 4 Claiming $15,000 Mipando 3
GP 01/14/2011 5 Allowance Optional Claiming $55,000 Commandeered 6
GP 01/14/2011 6 Claiming $15,000 Mr. Sluggo 5
GP 01/14/2011 7 Claiming $31,000 Seven Blue 9
GP 01/14/2011 8 Maiden Special Weight $48,500 Ari C 1
GP 01/14/2011 9 Allowance Optional Claiming $61,500 Happy Week 5
GP 01/14/2011 10 Maiden Special Weight $48,500 Wet One (IRE) 3
GP 01/15/2011 3 Maiden Special Weight $48,500 Making Tracks 5
GP 01/15/2011 5 Maiden Special Weight $48,500 Katz My Song 7
GP 01/15/2011 6 Claiming $31,000 Ballast (IRE) 5
GP 01/15/2011 8 Allowance Optional Claiming $55,000 Strong Commitment 9
GP 01/15/2011 9 Sugar Swirl Stakes (Gr. 3) $100,000 Landing My Way 10
GP 01/15/2011 10 Maiden Special Weight $48,500 Santa 4
GP 01/16/2011 2 Claiming $15,000 Tonigail 1
GP 01/16/2011 5 Claiming $31,000 Dream With Us 3
GP 01/16/2011 6 Maiden Special Weight $48,500 Shared Heart 1
GP 01/16/2011 7 Allowance Optional Claiming $55,000 Qeyaada 9
GP 01/16/2011 8 Starter Allowance $19,000 Royal Majesty 1
GP 01/16/2011 9 Dania Beach Stakes $100,000 Brilliant Speed 2
GP 01/17/2011 1 Maiden Claiming $24,000 Limeheart 9
GP 01/17/2011 3 Claiming $31,000 Storm Island 1
GP 01/17/2011 8 Allowance $61,500 French Dip 4
GP 01/17/2011 9 Maiden Claiming $36,500 Cartier Lady 5
GP 01/19/2011 3 Starter Allowance $21,000 Kafwain Wedgeheart 7
GP 01/19/2011 5 Maiden Claiming $21,500 Rosemont Drive 11
GP 01/19/2011 6 Claiming $41,000 Blackwell 4
GP 01/19/2011 8 Allowance $51,500 High Aspirations 3
GP 01/20/2011 7 Maiden Special Weight $38,500 R King of the Road 3
GP 01/20/2011 8 Allowance Optional Claiming $57,000 Sr. Henry 4
GP 01/20/2011 9 Starter Allowance $21,000 All Tacked Up 6
GP 01/21/2011 1 Maiden Claiming $15,000 Orale Vato 2
GP 01/21/2011 4 Claiming $28,000 Bruce N Autumn 5
GP 01/21/2011 7 Maiden Special Weight $48,500 Dance City 1
GP 01/21/2011 8 Maiden Special Weight $48,500 Saucy Jade 6
GP 01/21/2011 9 Allowance $51,500 Lauburu 5
GP 01/21/2011 10 Maiden Claiming $24,000 Career High 2
GP 01/22/2011 5 Maiden Special Weight $48,500 San Pablo 2
GP 01/22/2011 6 Starter Allowance $36,500 Cristal Jak 3
GP 01/22/2011 7 Allowance $51,500 Speedy's Gal 7
GP 01/22/2011 8 Allowance Optional Claiming $57,000 Primary Witness 5
GP 01/22/2011 9 Sweetest Chant Stakes $100,000 Excited 2
GP 01/28/2011 1 Claiming $15,000 Act of Blues 10
GP 01/28/2011 2 Claiming $28,000 Redfoxey Dorothy 3
GP 01/28/2011 3 Starter Allowance $21,000 Later Gater 5
GP 01/28/2011 7 Maiden Special Weight $48,500 Walker's Landing 7
GP 01/28/2011 8 Claiming $36,500 Took It From Him 5
GP 01/29/2011 1 Claiming $28,000 Romans Reward 12
GP 01/29/2011 2 Allowance $51,500 Mia's Angel 1
GP 01/29/2011 3 Maiden Claiming $36,500 Herecomeseveryman 8
GP 01/29/2011 5 Allowance $51,500 Crossbow 1
GP 01/29/2011 9 Sunshine Millions Filly and Mare Turf Stakes $300,000 Trip for A. J. 1
GP 01/30/2011 2 Allowance $51,500 Tap for Luck 7
GP 01/30/2011 5 Maiden Special Weight $48,500 Redwood Falls 3
GP 01/30/2011 8 Forward Gal Stakes (Gr. 2) $200,000 R Heat Lightning 4
GP 01/30/2011 11 Claiming $41,000 Unbridled Heat 3
GP 02/02/2011 1 Maiden Claiming $15,000 Power King 7
GP 02/02/2011 3 Claiming $15,000 Mipando 3
GP 02/02/2011 4 Allowance $51,500 Pinch Pie 3
GP 02/02/2011 5 Claiming $15,000 Coup de Theatre 4
GP 02/02/2011 6 Maiden Special Weight $48,500 Concorde's Flight 2
GP 02/02/2011 8 Allowance Optional Claiming $57,000 Mystic 4
GP 02/02/2011 9 Maiden Claiming $24,000 Gamecents 6
GP 02/03/2011 2 Maiden Claiming $15,000 Hopewell Terrace 7
GP 02/03/2011 5 Claiming $31,000 Excellent Soldier 9
GP 02/03/2011 8 Allowance Optional Claiming $55,000 Slambino 7
GP 02/04/2011 4 Maiden Claiming $21,500 Goodwood Gal 9
GP 02/04/2011 9 Allowance Optional Claiming $55,000 Doe Run 4
GP 02/04/2011 10 Claiming $31,000 Dream With Us 8
GP 02/05/2011 2 Maiden Special Weight $48,500 Ladymedaglia d'Oro 10
GP 02/05/2011 4 Claiming $44,000 Passager (FR) 3
GP 02/05/2011 6 Allowance $51,500 Queen'splatekitten 1
GP 02/05/2011 8 Maiden Special Weight $48,500 Cal Nation 1
GP 02/05/2011 10 Donn Handicap (Gr. 1) $500,000 Morning Line 2
GP 02/05/2011 11 Maiden Special Weight $48,500 Blimey 5
GP 02/06/2011 1 Maiden Special Weight $48,500 California 3
GP 02/06/2011 2 Maiden Claiming $31,500 Top Business 9
GP 02/06/2011 3 Claiming $36,500 Blackwell 3
GP 02/06/2011 5 Claiming $28,000 Aprilmayjune 5
GP 02/06/2011 6 Maiden Special Weight $48,500 Miss Smarty Pants 1
GP 02/06/2011 7 Maiden Special Weight $48,500 Sasueno 6
GP 02/06/2011 8 Allowance Optional Claiming $55,000 Embur's Song 9
GP 02/06/2011 9 Hallandale Beach Stakes $100,000 Brilliant Speed 2
GP 02/06/2011 10 Maiden Special Weight $48,500 Perfect Afleet 3
GP 02/09/2011 3 Claiming $15,000 Kafwain Wedgeheart 1
GP 02/09/2011 4 Allowance $51,500 Fiscal Stimulus 3
GP 02/09/2011 6 Maiden Special Weight $48,500 Shocking Behavior 8
GP 02/09/2011 8 Allowance Optional Claiming $55,000 Commandeered 1
GP 02/10/2011 5 Starter Allowance $26,000 Tempest Storm 2
GP 02/10/2011 6 Claiming $28,000 Overlord 6
GP 02/10/2011 7 Claiming $15,000 Certifiably Royal 1
GP 02/10/2011 8 Allowance Optional Claiming $55,000 Zermatt 3
GP 02/11/2011 6 Claiming $15,000 Boy G. 2
GP 02/11/2011 7 Starter Allowance $32,000 John Johny Jak 2
GP 02/11/2011 8 Maiden Special Weight $48,500 Praetereo 3
GP 02/11/2011 10 Maiden Claiming $24,000 Santa 2
GP 02/12/2011 5 Maiden Claiming $36,500 Sold the Farm 4
GP 02/12/2011 6 Allowance Optional Claiming $55,000 Primary Witness 7
GP 02/12/2011 7 Allowance Optional Claiming $51,500 Juanita 10
GP 02/12/2011 8 Maiden Special Weight $48,500 Rattlesnake Bridge 1
GP 02/12/2011 9 Claiming $31,000 Nergal (FR) 1
GP 02/12/2011 10 Gulfstream Park Sprint Championship Stakes (Gr. 2) $150,000 Coffee Boy 6
GP 02/12/2011 11 Claiming $28,000 Bruce N Autumn 3
GP 02/13/2011 2 Maiden Special Weight $48,500 Caught My Heart 7
GP 02/13/2011 3 Allowance $51,500 Bellamy's Boss 6
GP 02/13/2011 4 Starter Allowance $21,000 Chaysen' Alex 1
GP 02/13/2011 10 Hurricane Bertie Stakes (Gr. 3) $150,000 In Perpetuity 5
GP 02/13/2011 11 Maiden Claiming $36,500 High Strider 1
GP 02/16/2011 2 Maiden Claiming $15,000 Barry K 5
GP 02/16/2011 4 Maiden Claiming $15,000 Orale Vato 10
GP 02/16/2011 6 Maiden Special Weight $48,500 R Gypsy Gold 4
GP 02/16/2011 8 Allowance Optional Claiming $51,500 Ari C 2
GP 02/16/2011 9 Claiming $15,000 Brown's Hill 1
GP 02/17/2011 5 Claiming $15,000 Another Success 9
GP 02/17/2011 7 Claiming $44,000 Impersonator 7
GP 02/17/2011 8 Allowance $51,500 Estimate (FR) 6
GP 02/17/2011 9 Claiming $31,000 La Tetanic 8
GP 02/18/2011 5 Maiden Claiming $24,000 Taken for a Ride 6
GP 02/18/2011 7 Maiden Special Weight $48,500 Artisanal 2
GP 02/18/2011 9 Allowance $51,500 La Luna de Miel (GER) 1
GP 02/19/2011 2 Starter Allowance $21,000 Nathan Ridge 4
GP 02/19/2011 5 Allowance $51,500 High Aspirations 8
GP 02/19/2011 6 Maiden Special Weight $48,500 Escort 1
GP 02/19/2011 7 Claiming $28,000 To the Point (ARG) 6
GP 02/19/2011 8 Maiden Special Weight $48,500 Straight Line (IRE) 3
GP 02/19/2011 9 Sabin Stakes (Gr. 3) $100,000 Awesome Maria 1
GP 02/19/2011 10 Mac Diarmida Stakes (Gr. 2) $150,000 Prince Will I Am 1
GP 02/19/2011 11 Maiden Special Weight $48,500 Maple Leaf Kitten 7
GP 02/20/2011 2 Claiming $33,000 Surmount 1
GP 02/20/2011 3 Maiden Special Weight $48,500 Savvy Supreme 2
GP 02/20/2011 7 Allowance Optional Claiming $55,000 Written in Stone 2
GP 02/20/2011 8 Allowance $51,500 Sleetcalling 2
GP 02/20/2011 9 Claiming $31,000 Urban Flight 12
GP 02/20/2011 11 Maiden Claiming $24,000 Bala Roja 3
GP 02/21/2011 4 Maiden Claiming $24,000 Criminal Saga 6
GP 02/21/2011 6 Maiden Special Weight $48,500 Concorde's Flight 1
GP 02/23/2011 1 Claiming $15,000 Mipando 1
GP 02/23/2011 2 Claiming $45,000 Cristal Jak 5
GP 02/23/2011 4 Maiden Special Weight $48,500 Ready Love 5
GP 02/23/2011 7 Claiming $31,000 Write When Ready 6
GP 02/23/2011 8 Allowance $51,500 Dad's Crazy 10
GP 02/23/2011 9 Maiden Claiming $24,000 Smart Farming 1
GP 02/24/2011 2 Maiden Special Weight $38,500 Fairview Heights 3
GP 02/24/2011 3 Allowance Optional Claiming $55,000 One Cool Dude (ARG) 3
GP 02/24/2011 4 Optional Claiming $26,000 A Centurian 6
GP 02/24/2011 7 Starter Allowance $22,500 Go Richie Go 2
GP 02/24/2011 8 Allowance Optional Claiming $55,000 Bella Moneta 3
GP 02/25/2011 1 Claiming $15,000 Cenizo 2
GP 02/25/2011 3 Claiming $31,000 Cinnamon Road 8
GP 02/25/2011 6 Maiden Claiming $21,500 Masterpiece 3
GP 02/25/2011 10 Claiming $28,000 Winaholic 2
GP 02/26/2011 2 Claiming $28,000 To the Point (ARG) 8
GP 02/26/2011 4 Claiming $28,000 Papaw Bodie 3
GP 02/26/2011 6 Maiden Special Weight $48,500 San Pablo 1
GP 02/26/2011 8 Davona Dale Stakes (Gr. 2) $250,000 R Heat Lightning 1
GP 02/26/2011 9 Hutcheson Stakes (Gr. 2) $150,000 Travelin Man 2
GP 02/26/2011 10 Fasig-Tipton Fountain of Youth Stakes (Gr. 2) $400,000 To Honor and Serve 3
GP 02/27/2011 5 Maiden Claiming $24,000 Kitkandoo 5
GP 02/27/2011 7 Maiden Special Weight $48,500 Perfect Afleet 2
GP 02/27/2011 8 Allowance Optional Claiming $57,000 Romin Robin 4
GP 02/27/2011 9 Allowance $51,500 Christmas for Liam 1
GP 02/27/2011 11 Maiden Claiming $36,500 Mayday Maria 3
GP 03/02/2011 4 Maiden Special Weight $38,500 Holiday Flare 1
GP 03/02/2011 7 Maiden Special Weight $48,500 Broadway Ghost 2
GP 03/02/2011 9 Maiden Claiming $24,000 Isaac Newton 1
GP 03/03/2011 2 Starter Allowance $19,000 Royal Majesty 1
GP 03/03/2011 3 Claiming $15,000 Coup de Theatre 4
GP 03/03/2011 4 Claiming $31,000 Moose Man 8
GP 03/03/2011 8 Allowance Optional Claiming $51,500 Ocasta 5
GP 03/03/2011 9 Maiden Claiming $24,000 Blue Samurai 8
GP 03/04/2011 1 Claiming $15,000 Brown's Hill 2
GP 03/04/2011 5 Allowance Optional Claiming $55,000 Mia's Angel 2
GP 03/04/2011 7 Maiden Special Weight $48,500 Saucy Jade 4
GP 03/04/2011 8 Claiming $28,000 Gladsong 9
GP 03/04/2011 9 Allowance $51,500 Longboarder 3
GP 03/04/2011 10 Maiden Claiming $24,000 Rocky Fortune 6
GP 03/05/2011 4 Starter Allowance $39,300 Argentine Talisman 1
GP 03/05/2011 5 Maiden Special Weight $52,400 Fire With Fire 5
GP 03/05/2011 6 Allowance Optional Claiming $59,300 Indy's Alexandra 6
GP 03/05/2011 7 Maiden Special Weight $52,400 Imhotep 2
GP 03/05/2011 8 Allowance Optional Claiming $61,500 Aikenite 2
GP 03/05/2011 9 Allowance Optional Claiming $59,300 Boisterous 5
GP 03/05/2011 10 Honey Fox Stakes (Gr. 3) $100,000 Trip for A. J. 4
GP 03/06/2011 6 Maiden Claiming $23,200 Back Alley Deal 9
GP 03/06/2011 7 Allowance Optional Claiming $55,600 Pinch Pie 2
GP 03/06/2011 8 Maiden Special Weight $52,400 Moonlit River 10
GP 03/09/2011 1 Starter Allowance $22,600 La Tetanic 4
GP 03/09/2011 5 Allowance Optional Claiming $55,600 War for Gus 2
GP 03/09/2011 6 Claiming $16,200 Certifiably Royal 7
GP 03/09/2011 8 Claiming $28,000 Dream With Us 1
GP 03/10/2011 5 Maiden Claiming $16,200 Barry K 4
GP 03/10/2011 6 Claiming $22,700 Overlord 8
GP 03/10/2011 7 Claiming $16,200 Zoran 7
GP 03/10/2011 8 Allowance $55,600 High Aspirations 8
GP 03/10/2011 9 Maiden Claiming $26,000 Bravo Domenico 5
GP 03/11/2011 2 Claiming $47,400 Flying Trip 5
GP 03/11/2011 10 Maiden Claiming $26,000 Goodwood Gal 8
GP 03/12/2011 1 Claiming $39,400 Nergal (FR) 2
GP 03/12/2011 2 Maiden Special Weight $52,400 Praetereo 1
GP 03/12/2011 7 Maiden Special Weight $52,400 Redeemed 1
GP 03/12/2011 8 Timely Writer Stakes $100,000 Uncle Mo 1
GP 03/12/2011 9 Palm Beach Stakes (Gr. 3) $150,000 Queen'splatekitten 2
GP 03/12/2011 10 Gulfstream Park Handicap (Gr. 2) $300,000 Rule 6
GP 03/13/2011 4 Maiden Special Weight $52,400 Blimey 1
GP 03/13/2011 5 Allowance $66,400 National Kid (BRZ) 8
GP 03/13/2011 8 Allowance Optional Claiming $59,300 Written in Stone 4
GP 03/13/2011 9 Maiden Special Weight $52,400 Dattts Cool 3
GP 03/13/2011 10 Herecomesthebride Stakes (Gr. 3) $150,000 Excited 3
GP 03/13/2011 11 Maiden Special Weight $52,400 Check Your Soul 8
GP 03/16/2011 2 Claiming $33,400 Livingtheblues 7
GP 03/16/2011 8 Allowance $55,600 Mount Holiday 4
GP 03/16/2011 9 Claiming $33,400 Dylexi 7
GP 03/17/2011 1 Optional Claiming $28,000 Tempest Storm 1
GP 03/17/2011 3 Claiming $20,000 Rage of Aquarius 2
GP 03/17/2011 7 Maiden Special Weight $52,400 Strike It Green 8
GP 03/18/2011 1 Claiming $16,200 West Coast Flier 5
GP 03/18/2011 2 Maiden Claiming $34,000 Making Tracks 4
GP 03/18/2011 4 Allowance $66,400 Bridgetown 1
GP 03/18/2011 7 Maiden Claiming $19,400 Masterpiece 1
GP 03/18/2011 8 Starter Allowance $22,600 Chaysen' Alex 2
GP 03/18/2011 9 Allowance $55,600 McCool 10
GP 03/18/2011 10 Maiden Claiming $39,400 Ready Love 7
GP 03/19/2011 2 Maiden Special Weight $52,400 Artisanal 1
GP 03/19/2011 3 Allowance $55,600 Cal Nation 2
GP 03/19/2011 4 Allowance $55,600 Maple Forest 5
GP 03/19/2011 5 Maiden Claiming $26,000 Hail to the Band 10
GP 03/19/2011 6 Maiden Special Weight $52,400 Tetelestai 4
GP 03/19/2011 8 Claiming $47,400 Passager (FR) 3
GP 03/19/2011 9 Claiming $39,400 Girl Bar 4
GP 03/19/2011 10 Inside Information Stakes (Gr. 2) $150,000 Amen Hallelujah 2
GP 03/20/2011 2 Maiden Special Weight $42,400 Trippi's Charm 3
GP 03/20/2011 3 Allowance $55,600 Escort 1
GP 03/20/2011 7 Claiming $16,200 Zoran 1
GP 03/20/2011 8 Allowance Optional Claiming $55,600 Lauburu 6
GP 03/20/2011 9 Allowance $55,600 Estimate (FR) 2
GP 03/20/2011 10 Orchid Stakes (Gr. 3) $150,000 La Luna de Miel (GER) 1
GP 03/20/2011 11 Claiming $30,200 My Pocket Ace 2
GP 03/23/2011 4 Claiming $16,200 Tonigail 1
GP 03/23/2011 5 Claiming $30,200 Redfoxey Dorothy 6
GP 03/23/2011 6 Claiming $20,000 Sadler Power 3
GP 03/24/2011 1 Maiden Claiming $16,200 Orale Vato 7
GP 03/24/2011 3 Claiming $16,200 Boy G. 9
GP 03/24/2011 6 Maiden Special Weight $52,400 Eastside Train 3
GP 03/24/2011 7 Claiming $22,700 Bruce N Autumn 1
GP 03/24/2011 9 Claiming $24,300 Ballast (IRE) 6
GP 03/24/2011 10 Maiden Claiming $26,000 Henny Betty 9
GP 03/25/2011 3 Maiden Special Weight $52,400 So Much Love 1
GP 03/25/2011 4 Maiden Special Weight $52,400 Thundering Waters 4
GP 03/25/2011 9 Allowance Optional Claiming $59,300 Mia's Angel 3
GP 03/26/2011 3 Maiden Special Weight $54,400 Frothy Market 4
GP 03/26/2011 8 Maiden Special Weight $54,400 Chinglish 1
GP 03/26/2011 9 Allowance Optional Claiming $57,800 High Strider 6
GP 03/26/2011 10 Pan American Stakes (Gr. 3) $150,000 Prince Will I Am 3
GP 03/27/2011 4 Maiden Special Weight $54,400 Town Flirt 3
GP 03/27/2011 7 Maiden Claiming $27,000 Tomorrow Came 4
GP 03/27/2011 9 Starter Allowance $35,900 John Johny Jak 6
GP 03/27/2011 11 Maiden Claiming $41,000 Sold the Farm 7
GP 03/30/2011 2 Claiming $16,800 Freedom Afleet 4
GP 03/30/2011 4 Claiming $20,800 Kafwain Wedgeheart 2
GP 03/30/2011 7 Maiden Special Weight $54,400 Dancin David 2
GP 03/30/2011 8 Claiming $35,900 Smart Farming 10
GP 03/31/2011 3 Maiden Claiming $16,800 Goodwood Gal 1
GP 03/31/2011 7 Claiming $23,500 To the Point (ARG) 1
GP 03/31/2011 8 Allowance Optional Claiming $61,700 Bigshot 5
GP 04/01/2011 8 Claiming $31,400 City Sage 5
GP 04/01/2011 9 Allowance Optional Claiming $61,700 Army Scout 5
GP 04/01/2011 10 Claiming $23,500 Overlord 10
GP 04/02/2011 2 Allowance Optional Claiming $44,600 Concorde's Flight 4
GP 04/02/2011 3 Allowance $44,600 Holiday Flare 1
GP 04/02/2011 4 Maiden Special Weight $54,400 R Gypsy Gold 3
GP 04/02/2011 5 Allowance Optional Claiming $63,900 Hibaayeb (GB) 3
GP 04/02/2011 6 Maiden Special Weight $54,400 Broadway Ghost 4
GP 04/02/2011 7 Alligator Alley Stakes $62,000 One Cool Dude (ARG) 4
GP 04/02/2011 8 Maiden Special Weight $54,400 Savvy Supreme 1
GP 04/02/2011 9 Allowance Optional Claiming $61,700 Embur's Song 4
GP 04/02/2011 10 Rampart Stakes (Gr. 3) $150,000 Awesome Maria 1
GP 04/02/2011 11 Gulfstream Oaks (Gr. 2) $300,000 R Heat Lightning 1
GP 04/03/2011 2 Maiden Special Weight $60,500 Ice Cream Man 1
GP 04/03/2011 3 Swale Stakes (Gr. 2) $150,000 Travelin Man 1
GP 04/03/2011 4 Maiden Special Weight $60,500 Hammersmith 10
GP 04/03/2011 5 Allowance Optional Claiming $67,400 Christmas for Liam 1
GP 04/03/2011 6 Sir Shackleton Handicap $67,400 Ibboyee 4
GP 04/03/2011 7 Allowance $63,700 Ocean Seven (IRE) 4
GP 04/03/2011 8 Emirates Airlines Appleton Stakes (Gr. 3) $100,000 Commandeered 8
GP 04/03/2011 9 Skip Away Stakes (Gr. 3) $100,000 Ron the Greek 4
GP 04/03/2011 11 Allowance Optional Claiming $69,400 Perfect Shower 10
GP 04/03/2011 12 Maiden Special Weight $60,500 Perfect Afleet 6
AQU 04/06/2011 2 Claiming $26,000 American Classic 3
AQU 04/06/2011 3 Allowance Optional Claiming $47,000 Dance Quietly 3
AQU 04/06/2011 5 Starter Allowance $41,000 Spoleto 4
AQU 04/06/2011 6 Maiden Special Weight $39,000 Dancing Tiz 5
AQU 04/06/2011 8 Hamlet Stakes $60,000 Driven by Solar 3
AQU 04/07/2011 2 Maiden Claiming $24,000 Redwood Falls 1
AQU 04/07/2011 6 Claiming $28,800 Smart Enuf 4
AQU 04/07/2011 8 Allowance Optional Claiming $42,000 Katskill Bay 9
AQU 04/08/2011 2 Maiden Special Weight $42,000 Rose's Turn 1
AQU 04/09/2011 2 Maiden Special Weight $42,000 Swinging Tune 4
AQU 04/09/2011 4 Maiden Special Weight $48,000 Iron Lou 1
AQU 04/09/2011 5 Allowance $50,000 Fortitude 10
AQU 04/09/2011 7 Comely Stakes (Gr. 3) $150,000 R Holiday Mood 4
AQU 04/09/2011 9 Carter Handicap (Gr. 1) $250,000 Morning Line 1
AQU 04/09/2011 10 Resorts World New York Casino Wood Memorial Stakes (Gr. 1) $1,020,000 Uncle Mo 3
AQU 04/09/2011 11 Claiming $32,000 N P Cat 2
GP 04/10/2011 2 Maiden Claiming $19,800 Barry K 2
GP 04/10/2011 4 Maiden Special Weight $63,600 Cottage Vale 6
GP 04/10/2011 5 Allowance Optional Claiming $80,100 Life At Ten 2
GP 04/10/2011 11 Maiden Claiming $34,000 Ready Love 7
KEE 04/13/2011 1 Maiden Claiming $25,000 Voodat 7
KEE 04/13/2011 7 Maiden Special Weight $50,000 Straight Line (IRE) 5
KEE 04/14/2011 7 Allowance $58,000 Boisterous 1
KEE 04/14/2011 8 Vinery Madison Stakes (Gr. 1) $300,000 Amen Hallelujah 2
KEE 04/14/2011 9 Maiden Special Weight $50,000 Chinook Wind (IRE) 3
KEE 04/15/2011 5 Allowance $54,000 So Much Love 2
KEE 04/15/2011 7 Allowance $62,000 Street Move 10
KEE 04/15/2011 9 Maker's Mark Mile Stakes (Gr. 1) $300,000 Bim Bam 5
CT 04/16/2011 8 Blue and Gold Stakes $100,000 Loranger Native 1
CT 04/16/2011 10 Charles Town Classic Stakes (Gr. 3) $1,000,000 Rule 9
KEE 04/16/2011 1 Allowance Optional Claiming $58,000 Escort 5
KEE 04/16/2011 2 Maiden Special Weight $50,000 La Rumba 3
KEE 04/16/2011 4 Allowance $54,000 Lauburu 5
KEE 04/16/2011 5 Allowance $54,000 Fashion Insider 4
KEE 04/16/2011 6 Shakertown Stakes (Gr. 3) $100,000 Stratford Hill 1
KEE 04/16/2011 7 Commonwealth Stakes (Gr. 2) $175,000 Aikenite 1
KEE 04/16/2011 8 Jenny Wiley Stakes (Gr. 2) $200,000 Miss Keller (IRE) 6
KEE 04/16/2011 9 Toyota Blue Grass Stakes (Gr. 1) $750,000 Queen'splatekitten 7
KEE 04/17/2011 3 Allowance $58,000 Cafe Elektric (GB) 5
KEE 04/17/2011 4 Allowance $54,000 Longboarder 1
KEE 04/17/2011 6 Maiden Special Weight $50,000 Imhotep 5
KEE 04/17/2011 7 Maiden Special Weight $50,000 Uncle Carm 2
KEE 04/17/2011 9 Allowance $66,000 Hollinger 3
AQU 04/20/2011 1 Maiden Special Weight $43,000 Deccan Odyssey 7
AQU 04/20/2011 9 Maiden Claiming $21,000 Espresso Martini 2
KEE 04/22/2011 2 Claiming $37,000 Cristiano (PER) 1
KEE 04/22/2011 5 Allowance $54,000 Artisanal 1
KEE 04/22/2011 7 Allowance $58,000 Aridus 5
KEE 04/22/2011 8 Allowance $54,000 Good Better Best 1
KEE 04/22/2011 9 Hilliard Lyons Doubledogdare Stakes (Gr. 3) $125,000 Embur's Song 1
KEE 04/22/2011 10 Maiden Special Weight $50,000 Shocking Behavior 3
AQU 04/23/2011 1 Claiming $18,000 Zosogood 2
AQU 04/23/2011 5 Maiden Special Weight $38,000 Molly's Ship 2
AQU 04/23/2011 7 Maiden Special Weight $38,000 Sarah's Pleasure 5
AQU 04/23/2011 8 Allowance $41,000 Victoryat Last 2
AQU 04/23/2011 9 Jerome Stakes (Gr. 2) $150,000 Cal Nation 8
KEE 04/27/2011 6 Maiden Special Weight $50,000 Smoke It Over 2
KEE 04/28/2011 2 Claiming $44,000 Commandeered 6
KEE 04/28/2011 3 Maiden Special Weight $50,000 Akris Queen 3
KEE 04/28/2011 6 Allowance $54,000 Fork Lightning 11
KEE 04/28/2011 8 Grey Goose Bewitch Stakes (Gr. 3) $150,000 La Luna de Miel (GER) 4
KEE 04/29/2011 7 Allowance $54,000 Estimate (FR) 6
KEE 04/29/2011 9 Elkhorn Stakes (Gr. 2) $150,000 Musketier (GER) 1
CD 04/30/2011 2 Maiden Claiming $24,000 Hot Rodder 4
CD 04/30/2011 8 The Cliff's Edge Derby Trial Stakes (Gr. 3) $200,000 Travelin Man 6
CD 04/30/2011 9 Allowance $53,500 Oregon Lady (IRE) 1
BEL 05/01/2011 8 Claiming $26,000 Back to Hurstland 8
BEL 05/01/2011 9 Allowance $53,000 Concorde's Flight 6
BEL 05/01/2011 10 Claiming $25,000 American Classic 4
CD 05/05/2011 4 Maiden Special Weight $49,000 More Than Minted 1
CD 05/05/2011 9 Allowance Optional Claiming $59,800 Modern Cowboy 4
CD 05/05/2011 10 Allowance $51,000 Ocean Seven (IRE) 6
CD 05/06/2011 5 Allowance Optional Claiming $51,000 Marvel Gaye 3
CD 05/06/2011 7 Edgewood Stakes $100,000 My Redbyrd 6
CD 05/06/2011 8 Eight Belles Stakes (Gr. 3) $100,000 Holiday Flare 5
CD 05/06/2011 11 Kentucky Oaks (Gr. 1) $1,000,000 Bouquet Booth 5
CD 05/06/2011 12 Maiden Special Weight $49,000 Fantasy of Flight 1
CD 05/07/2011 6 Twin Spires Turf Sprint Stakes (Gr. 3) $100,000 Bridgetown 2
CD 05/07/2011 7 Humana Distaff Stakes (Gr. 1) $300,000 Amen Hallelujah 3
CD 05/07/2011 9 Churchill Downs Stakes (Gr. 2) $300,000 Aikenite 1
CD 05/07/2011 10 Woodford Reserve Turf Classic Stakes (Gr. 1) $500,000 Prince Will I Am 5
CD 05/07/2011 11 Kentucky Derby Presented by Yum! Brands (Gr. 1) $2,000,000 Animal Kingdom 1
BEL 05/08/2011 3 New York Stallion Park Avenue Stakes $100,000 Silky Me 6
BEL 05/08/2011 6 Claiming $26,000 Smart Enuf 5
BEL 05/11/2011 1 Allowance Optional Claiming $55,000 Indy Scent 6
BEL 05/11/2011 3 New York Stallion Stakes $100,000 Anaphylaxis 7
BEL 05/11/2011 4 Allowance Optional Claiming $55,000 Dynazaper 5
BEL 05/11/2011 6 Maiden Claiming $23,000 Spyglass 6
BEL 05/11/2011 8 Waldoboro Stakes $60,000 Trappe Shot 1
BEL 05/12/2011 1 Claiming $41,000 Wealthy Aviator 7
BEL 05/12/2011 5 Allowance $53,000 Fashion Insider 6
BEL 05/12/2011 6 Maiden Claiming $34,000 System Ready 1
BEL 05/12/2011 9 Claiming $25,000 American Classic 1
BEL 05/13/2011 3 Allowance Optional Claiming $56,000 Katy Now 4
BEL 05/13/2011 5 Maiden Special Weight $41,000 Sarah's Pleasure 7
BEL 05/13/2011 9 Starter Allowance $42,000 Dopke Gal 6
BEL 05/14/2011 1 Starter Allowance $41,000 Strong Impact 4
BEL 05/14/2011 2 Claiming $21,000 Zosogood 3
BEL 05/14/2011 4 Allowance $52,000 Dark Thunder 1
BEL 05/14/2011 6 Allowance $43,000 Pure Amour 1
BEL 05/14/2011 8 Allowance Optional Claiming $45,000 Midnight Billy 7
BEL 05/14/2011 9 Peter Pan Stakes (Gr. 2) $200,000 Uncle Brent 9
BEL 05/14/2011 10 Maiden Claiming $22,000 Joker Jack 7
BEL 05/15/2011 1 Allowance Optional Claiming $43,000 Smart Enuf 2
BEL 05/15/2011 3 Maiden Special Weight $50,000 Shocking Behavior 4
BEL 05/15/2011 7 Maiden Claiming $22,000 This England 11
BEL 05/15/2011 9 One Count Stakes $60,000 Alma d'Oro 4
BEL 05/15/2011 10 Allowance $43,000 Iron Lou 11
BEL 05/18/2011 1 Claiming $46,000 One Cool Dude (ARG) 2
BEL 05/18/2011 3 Classy Mirage Stakes $60,000 Savvy Supreme 1
BEL 05/18/2011 8 Allowance Optional Claiming $52,000 Maple Forest 1
BEL 05/18/2011 9 Claiming $23,000 Onzain 6
BEL 05/19/2011 3 Three Coins Up Stakes $60,000 Hymn Book 1
PIM 05/20/2011 9 Miss Preakness Stakes $50,000 R Holiday Mood 1
PIM 05/20/2011 10 Black-Eyed Susan Stakes (Gr. 2) $250,000 Buster's Ready 2
PIM 05/20/2011 11 The Very One Stakes $50,000 Rose Catherine 3
PIM 05/20/2011 13 Hilltop Stakes $50,000 Excited 1
PIM 05/21/2011 4 Allaire DuPont Distaff Stakes (Gr. 3) $100,000 Life At Ten 3
PIM 05/21/2011 6 Chick Lang Stakes $100,000 Escort 6
PIM 05/21/2011 7 James W. Murphy Stakes $100,000 Chinglish 1
PIM 05/21/2011 8 Maryland Sprint Handicap (Gr. 3) $100,000 China 3
PIM 05/21/2011 9 Gallorette Handicap (Gr. 3) $100,000 No Explaining (IRE) 1
PIM 05/21/2011 10 William Donald Schaefer Memorial Stakes (Gr. 3) $100,000 Colizeo 2
PIM 05/21/2011 12 Preakness Stakes (Gr. 1) $1,000,000 Animal Kingdom 2
BEL 05/22/2011 3 Maiden Special Weight $41,000 Sunny Smiles 6
BEL 05/22/2011 5 A Gift Stakes $60,000 Shankopotamus 6
BEL 05/22/2011 7 Claiming $26,000 N P Cat 8
BEL 05/22/2011 9 Three Coins Up Stakes $60,000 Boisterous 1
BEL 05/22/2011 10 Maiden Special Weight $40,000 Skips Prospect 7
BEL 05/25/2011 3 Allowance Optional Claiming $52,000 Tempest Storm 3
BEL 05/25/2011 6 Maiden Special Weight $51,000 Caneros 9
BEL 05/25/2011 9 Claiming $26,000 Rage of Aquarius 5
BEL 05/26/2011 4 Maiden Special Weight $51,000 Akris Queen 6
BEL 05/26/2011 6 Allowance $52,000 Cal Nation 1
BEL 05/27/2011 5 Maiden Claiming $18,000 Deccan Odyssey 2
BEL 05/27/2011 6 Allowance Optional Claiming $45,000 Freedom Rings 4
BEL 05/27/2011 8 Allowance Optional Claiming $54,000 Super Slash 3
BEL 05/27/2011 9 Maiden Special Weight $40,000 Soinlovewithuam I 7
BEL 05/28/2011 2 Maiden Special Weight $51,000 Acadian Blues 5
BEL 05/28/2011 3 Maiden Special Weight $40,000 Too Tough Sissy 4
BEL 05/28/2011 5 Starter Allowance $42,000 Big Blue Kitten 1
BEL 05/28/2011 7 Maiden Special Weight $41,000 Spyglass 8
BEL 05/28/2011 8 Claiming $24,000 Thunder Jewel 10
BEL 05/28/2011 9 Sheepshead Bay Stakes (Gr. 2) $150,000 Hibaayeb (GB) 1
BEL 05/28/2011 10 Maiden Claiming $23,000 Elusive Male 4
BEL 05/29/2011 1 Starter Handicap $45,000 Spirit of Cochise 6
BEL 05/29/2011 3 Claiming $33,000 Tribeca 4
BEL 05/29/2011 6 Maiden Special Weight $51,000 Lucky Stone 7
BEL 05/29/2011 7 Mount Vernon Stakes $100,000 Paraiba 2
BEL 05/29/2011 9 Kingston Stakes $100,000 Pretty Boy Freud 5
BEL 05/29/2011 10 Maiden Claiming $23,000 Loginova 7
BEL 05/30/2011 9 Sands Point Stakes (Gr. 2) $150,000 Mystical Star 5
BEL 05/30/2011 10 Metropolitan Handicap (Gr. 1) $500,000 Aikenite 4
BEL 05/30/2011 11 Claiming $27,000 King Rock 1
BEL 06/02/2011 1 Claiming $26,000 Landlash 8
BEL 06/02/2011 5 Allowance $42,000 Gambling Geraldine 3
BEL 06/02/2011 6 Starter Handicap $40,000 Codeword (IRE) 5
BEL 06/02/2011 7 Maiden Claiming $18,000 Pam's Lucky Lady 3
BEL 06/03/2011 2 Maiden Special Weight $60,000 Behemoth 3
BEL 06/03/2011 7 Claiming $29,000 Bachhaus 1
BEL 06/03/2011 9 Maiden Claiming $18,000 Elusive Male 3
BEL 06/04/2011 3 Maiden Special Weight $50,000 Cuatro d'Oro 6
BEL 06/04/2011 5 Maiden Special Weight $41,000 St. Lucy 3
BEL 06/04/2011 9 Vagrancy Handicap (Gr. 2) $150,000 Tidal Pool 3
BEL 06/05/2011 1 Allowance Optional Claiming $45,000 Thunder Chief 2
BEL 06/05/2011 2 Claiming $21,000 Zosogood 4
BEL 06/05/2011 4 Xtra Heat Stakes $60,000 Triune 4
BEL 06/05/2011 6 New York Stallion Spectacular Bid Stakes $75,000 Bold Deed 2
BEL 06/05/2011 8 Starter Allowance $41,000 Funky Munky Mama 8
BEL 06/05/2011 9 New York Stallion Cupecoy's Joy Stakes $75,000 Letshootpool 5
BEL 06/05/2011 10 Claiming $28,000 Bold Vindication 1
BEL 06/08/2011 1 Allowance $53,000 Rockettes Escapade 2
BEL 06/08/2011 2 Maiden Special Weight $41,000 Cientifico 6
BEL 06/08/2011 3 Allowance Optional Claiming $55,000 Dynazaper 1
BEL 06/08/2011 5 Allowance Optional Claiming $56,000 City Broad 2
BEL 06/08/2011 7 Nonsuch Bay Stakes $60,000 Rose Catherine 1
BEL 06/08/2011 9 Maiden Special Weight $50,000 No Peeking 5
BEL 06/10/2011 2 Maiden Special Weight $50,000 Maria's Own 3
BEL 06/10/2011 3 Maiden Special Weight $60,000 Finale 4
BEL 06/10/2011 5 Maiden Claiming $34,000 Dodging 3
BEL 06/10/2011 7 Maiden Claiming $23,000 Riverview Road 5
BEL 06/10/2011 9 Poker Stakes (Gr. 3) $100,000 Riviera Cocktail 5
BEL 06/10/2011 10 Brooklyn Handicap (Gr. 2) $150,000 Alma d'Oro 3
BEL 06/11/2011 1 Allowance $63,000 Pretty Boy Freud 6
BEL 06/11/2011 5 Allowance $53,000 Sam Hillic 10
BEL 06/11/2011 6 TVG Acorn Stakes (Gr. 1) $300,000 Savvy Supreme 6
BEL 06/11/2011 7 True North Handicap (Gr. 2) $250,000 Trappe Shot 1
BEL 06/11/2011 8 Woody Stephens Stakes (Gr. 2) $250,000 Travelin Man 4
BEL 06/11/2011 9 Foxwoods Just a Game Stakes (Gr. 1) $400,000 Amen Hallelujah 3
BEL 06/11/2011 10 Woodford Reserve Manhattan Handicap (Gr. 1) $400,000 Prince Will I Am 9
BEL 06/11/2011 11 Belmont Stakes (Gr. 1) $1,000,000 Animal Kingdom 6
BEL 06/15/2011 1 Claiming $27,000 Artie's Chapter 3
BEL 06/15/2011 3 Allowance Optional Claiming $57,000 Katy Now 1
BEL 06/15/2011 5 Claiming $29,000 Rose's Turn 4
BEL 06/15/2011 7 Claiming $28,000 Ba Ba's Bunch 4
BEL 06/15/2011 8 Claiming $35,000 It's the Big Cat 8
BEL 06/16/2011 1 Allowance Optional Claiming $57,000 Blues Street 1
BEL 06/16/2011 2 Maiden Claiming $34,000 Silver Screamer 2
BEL 06/16/2011 4 Maiden Special Weight $60,000 Erin Enchanted 3
BEL 06/16/2011 5 Allowance Optional Claiming $44,000 Driven by Solar 3
BEL 06/16/2011 6 Starter Allowance $42,000 Speedy's Gal 3
BEL 06/16/2011 7 Maiden Claiming $23,000 Caneros 8
BEL 06/16/2011 8 Allowance $43,000 All Quiet 6
BEL 06/17/2011 1 Claiming $28,000 Hard Call 1
BEL 06/17/2011 3 Starter Allowance $41,000 Siete Machos 6
BEL 06/17/2011 8 Allowance Optional Claiming $56,000 Spirit of Cochise 2
BEL 06/18/2011 3 Maiden Special Weight $51,000 Bomber Boy 3
BEL 06/18/2011 5 Maiden Special Weight $41,000 Mightylover 5
BEL 06/18/2011 6 Allowance $50,400 Iron Lou 2
BEL 06/18/2011 8 Hill Prince Stakes (Gr. 3) $100,000 Chinglish 8
BEL 06/18/2011 9 Ogden Phipps Handicap (Gr. 1) $250,000 Awesome Maria 1
BEL 06/19/2011 4 Maiden Special Weight $51,000 Kinda Spicy 1
BEL 06/19/2011 5 Maiden Claiming $23,000 She Drives Me Wild 2
BEL 06/19/2011 6 Starter Allowance $42,000 Cookram Rock 6
BEL 06/19/2011 8 Allowance $42,000 Holy Blitzer 10
BEL 06/19/2011 9 Noble Nashua Stakes $60,000 Slevin 4
BEL 06/19/2011 10 Maiden Special Weight $41,000 Sunny Smiles 8
BEL 06/22/2011 2 Maiden Special Weight $51,000 Fire With Fire 1
BEL 06/22/2011 3 Allowance Optional Claiming $54,000 Dark Thunder 1
BEL 06/22/2011 7 Starter Handicap $40,000 Queen of Protocol 8
BEL 06/22/2011 8 Starter Allowance $31,000 Successful Score 2
BEL 06/22/2011 9 Maiden Claiming $18,000 Beijing Blues (ARG) 3
BEL 06/23/2011 1 Allowance $53,000 So Much Love 2
BEL 06/23/2011 2 Allowance Optional Claiming $54,000 Summer Laugh 5
BEL 06/23/2011 3 Maiden Claiming $23,000 Alarmist 2
BEL 06/23/2011 7 Allowance $42,000 Gambling Geraldine 2
BEL 06/23/2011 8 Allowance Optional Claiming $52,000 Gantry 1
BEL 06/24/2011 7 Claiming $23,000 Good to Be Me 5
BEL 06/24/2011 9 Maiden Special Weight $41,000 St. Lucy 1
BEL 06/25/2011 1 Starter Handicap $40,000 Six Flings 3
BEL 06/25/2011 6 New York Stakes (Gr. 2) $150,000 Hibaayeb (GB) 3
BEL 06/25/2011 7 Claiming $23,000 Letshootpool 1
BEL 06/25/2011 8 Allowance Optional Claiming $45,000 Gold Raptor 7
BEL 06/25/2011 9 Mother Goose Stakes (Gr. 1) $250,000 Buster's Ready 1
BEL 06/25/2011 10 Maiden Special Weight $40,000 Aptphilly 6
WO 06/26/2011 5 Highlander Stakes (Gr. 2) $200,000 Fiddlers Patriot 2
WO 06/26/2011 7 Singspiel Stakes (Gr. 3) $150,000 Musketier (GER) 1
WO 06/26/2011 10 Queen's Plate Stakes $1,000,000 Queen'splatekitten 5
BEL 06/29/2011 4 Claiming $28,000 Bold Vindication 2
BEL 06/29/2011 5 Starter Allowance $41,000 Life's Measure 3
BEL 06/29/2011 6 Maiden Special Weight $60,000 Wild and Windblown 9
BEL 06/29/2011 7 Allowance Optional Claiming $53,000 Point of Entry 2
BEL 06/29/2011 8 Allowance Optional Claiming $55,000 Writingonthewall 4
BEL 06/30/2011 3 Starter Allowance $41,000 Ultimo Principe 4
BEL 06/30/2011 4 Maiden Special Weight $40,000 Sunny Smiles 4
BEL 06/30/2011 5 Allowance Optional Claiming $45,000 Rogue's Jewel 2
BEL 06/30/2011 7 Allowance $43,000 Moshe Diane 5
BEL 07/01/2011 2 Maiden Special Weight $60,000 Overdriven 1
BEL 07/01/2011 4 Maiden Special Weight $60,000 Zow 1
BEL 07/01/2011 7 Maiden Claiming $34,000 Dahess 3
BEL 07/01/2011 8 Sky Beauty Stakes $60,000 Happy Week 4
BEL 07/02/2011 1 Allowance $42,000 Crea's Law 3
BEL 07/02/2011 2 Maiden Special Weight $50,000 Eastside Train 2
BEL 07/02/2011 3 Maiden Claiming $23,000 Annawon 1
BEL 07/02/2011 4 Claiming $20,000 Camie's Hot 4
BEL 07/02/2011 5 Allowance $53,000 Big Blue Kitten 1
BEL 07/02/2011 8 Recording Stakes $60,000 My Redbyrd 2
BEL 07/02/2011 9 Dwyer Stakes (Gr. 2) $150,000 Cool Blue Red Hot 3
BEL 07/02/2011 10 Suburban Handicap (Gr. 2) $300,000 Hymn Book 2
BEL 07/03/2011 2 Maiden Special Weight $50,000 Counterparty 1
BEL 07/03/2011 3 Maiden Claiming $18,000 Pam's Lucky Lady 3
BEL 07/03/2011 4 Futurity Stakes (Gr. 2) $150,000 Team Six 2
BEL 07/03/2011 6 Allowance Optional Claiming $55,000 Protesting 7
BEL 07/03/2011 7 Claiming $21,000 Hurricane Heat 2
BEL 07/03/2011 8 Matron Stakes (Gr. 2) $150,000 Millionreasonswhy 1
BEL 07/03/2011 9 Bed o' Roses Handicap (Gr. 3) $150,000 Comic Marvel 7
BEL 07/03/2011 10 Allowance $42,000 Decesion Point 2
BEL 07/04/2011 1 Allowance Optional Claiming $52,000 Break Up the Game 1
BEL 07/04/2011 3 Maiden Special Weight $51,000 Dreamingly 3
BEL 07/04/2011 4 Allowance Optional Claiming $54,000 Cristiano (PER) 5
BEL 07/04/2011 6 Claiming $22,000 Ferocious Won 7
BEL 07/04/2011 7 Maiden Special Weight $41,000 Medieval Sword 1
BEL 07/04/2011 8 Allowance $42,000 Glory in Motion 2
BEL 07/04/2011 9 Prioress Stakes (Gr. 1) $250,000 Alienation 3
DEL 07/05/2011 8 Allowance $39,000 Unbridled Humor 1
BEL 07/07/2011 2 Maiden Claiming $29,000 Manresa Road (IRE) 3
BEL 07/07/2011 4 Starter Allowance $42,000 Speedy's Gal 3
BEL 07/07/2011 5 Rob 'n Gin Stakes $60,000 Voodoo Swinge 5
BEL 07/07/2011 7 Starter Allowance $41,000 Bachhaus 3
BEL 07/07/2011 9 Allowance Optional Claiming $44,000 Jackie Mo 6
BEL 07/08/2011 3 Claiming $28,000 Understatement 3
BEL 07/08/2011 4 Maiden Special Weight $60,000 Behemoth 1
BEL 07/09/2011 3 Maiden Special Weight $51,000 Wanstead 1
BEL 07/09/2011 5 Maiden Special Weight $60,000 Stat 1
BEL 07/09/2011 6 Allowance Optional Claiming $44,000 Never Right Joey 6
BEL 07/09/2011 7 Maiden Special Weight $41,000 Soinlovewithuam I 8
BEL 07/09/2011 8 Caress Stakes $60,000 Rose Catherine 3
BEL 07/09/2011 9 Man o' War Stakes (Gr. 1) $600,000 Boisterous 3
WO 07/10/2011 8 Dance Smartly Stakes (Gr. 2) $300,000 Mekong Melody (IRE) 3
BEL 07/14/2011 1 Claiming $27,000 Raging Wit 1
BEL 07/14/2011 3 Claiming $45,000 Razmataz 5
BEL 07/14/2011 4 Maiden Special Weight $60,000 St Pancras 2
BEL 07/14/2011 7 Maiden Claiming $16,000 D' Bulldog 1
BEL 07/14/2011 8 Allowance Optional Claiming $54,000 Ultimate Class 1
BEL 07/15/2011 1 Allowance Optional Claiming $53,000 Dancin Perfect 6
BEL 07/15/2011 2 Claiming $21,000 Eleni's Hope 5
BEL 07/15/2011 4 Starter Allowance $31,000 To the Point (ARG) 6
BEL 07/15/2011 5 Allowance Optional Claiming $45,000 Thunder Chief 1
BEL 07/15/2011 6 Maiden Special Weight $60,000 Finale 1
BEL 07/15/2011 7 Starter Handicap $40,000 Unbridled Heat 2
BEL 07/15/2011 8 Sometime Thing Stakes $60,000 Savvy Supreme 2
CNL 07/16/2011 2 Maiden Special Weight $23,000 Champagne Dancer 1
CNL 07/16/2011 3 Allowance Optional Claiming $24,000 Etarag 11
CNL 07/16/2011 6 Kitten's Joy Stakes $50,000 Romp (ARG) 6
CNL 07/16/2011 7 Virginia Oaks (Gr. 3) $150,000 Excited 1
CNL 07/16/2011 8 Virginia Derby (Gr. 2) $600,000 King Congie 6
BEL 07/17/2011 1 Claiming $26,000 Settling Seas 1
BEL 07/17/2011 4 Reno Miss South Shore Stakes $60,000 Banker's Buy 1
BEL 07/17/2011 7 Allowance $42,000 She's Got Rules 1
SAR 07/22/2011 2 Maiden Special Weight $48,000 Main Principal 12
SAR 07/22/2011 3 Starter Allowance $51,000 Grand Strategy 2
SAR 07/22/2011 4 Allowance $54,000 Without Love 5
SAR 07/22/2011 5 Maiden Special Weight $52,000 Stopshoppingmaria 3
SAR 07/22/2011 7 Maiden Special Weight $46,000 Kibosh 6
SAR 07/22/2011 8 James Marvin Stakes $78,000 Aikenite 5
SAR 07/22/2011 9 Schuylerville Stakes (Gr. 3) $100,000 Georgie's Angel 1
SAR 07/23/2011 1 Allowance $57,000 Rockettes Escapade 9
SAR 07/23/2011 2 Maiden Special Weight $52,000 How Do I Win 3
SAR 07/23/2011 4 Claiming $28,200 Camie's Hot 9
SAR 07/23/2011 6 Allowance $59,000 Tahoe Lake (BRZ) 2
SAR 07/23/2011 7 Maiden Special Weight $56,000 R King of the Road 1
SAR 07/23/2011 8 Maiden Special Weight $48,000 Sunny Smiles 7
SAR 07/23/2011 9 Allowance Optional Claiming $58,000 Roddickton 6
SAR 07/23/2011 10 TVG Coaching Club American Oaks (Gr. 1) $250,000 Buster's Ready 4
SAR 07/23/2011 11 Maiden Claiming $30,080 Last Out of Panama 4
SAR 07/24/2011 1 Allowance $47,000 Glory in Motion 6
SAR 07/24/2011 3 Claiming $34,000 Isn'tlovejustgrand 9
SAR 07/24/2011 5 Maiden Claiming $31,120 Overrated Toad 14
SAR 07/24/2011 7 Irish Linnet Stakes $77,500 Paraiba 5
SAR 07/24/2011 9 Sanford Stakes (Gr. 2) $150,000 Overdriven 1
SAR 07/24/2011 10 Maiden Claiming $30,080 Malibu Spice 2
SAR 07/25/2011 1 Maiden Special Weight $50,000 Joonbi 1
SAR 07/25/2011 2 Allowance Optional Claiming $47,000 Freedom Rings 3
SAR 07/25/2011 3 Maiden Special Weight $51,000 Select Cat 1
SAR 07/25/2011 4 Claiming $37,000 American Classic 2
SAR 07/25/2011 6 Maiden Special Weight $51,000 Sweet Cat 2
SAR 07/25/2011 9 Claiming $26,000 Sit Chilly 2
SAR 07/27/2011 1 Claiming $34,000 Rose's Turn 1
SAR 07/27/2011 2 Allowance Optional Claiming $55,000 Protesting 1
SAR 07/27/2011 3 Maiden Special Weight $51,000 Mr. Style 2
SAR 07/27/2011 5 Maiden Special Weight $53,000 Doctor Chit 6
SAR 07/27/2011 6 Maiden Special Weight $44,000 Purely Majestic 6
SAR 07/27/2011 8 Lake George Stakes (Gr. 2) $150,000 More Than Real 3
SAR 07/27/2011 9 Allowance $46,000 One Note Samba 1
SAR 07/28/2011 2 Allowance Optional Claiming $56,000 Stormandaprayer 2
SAR 07/28/2011 4 Allowance Optional Claiming $62,000 Loup Breton (IRE) 2
SAR 07/28/2011 5 Maiden Special Weight $54,000 Crazy Party 1
SAR 07/28/2011 6 Maiden Claiming $35,000 Dodging 2
SAR 07/28/2011 8 Allowance Optional Claiming $55,000 Isn't She Grand 5
SAR 07/28/2011 9 Allowance $54,000 Kinda Spicy 1
SAR 07/29/2011 1 Claiming $39,000 Stanford Dolly 5
SAR 07/29/2011 2 Maiden Special Weight $57,000 Springcourt 4
SAR 07/29/2011 3 Allowance Optional Claiming $58,000 Ron the Greek 2
SAR 07/29/2011 4 Claiming $31,000 Ultimo Principe 1
SAR 07/29/2011 6 Maiden Claiming $34,000 Dixie Shoes 9
SAR 07/29/2011 7 Curlin Stakes $76,500 Point of Entry 4
SAR 07/29/2011 9 Maiden Claiming $35,000 Caviar N Champagne 1
SAR 07/30/2011 2 Maiden Special Weight $54,000 Giant Surprise 1
SAR 07/30/2011 6 Maiden Special Weight $56,000 Captain Webb 1
SAR 07/30/2011 7 Allowance Optional Claiming $58,000 Dark Thunder 1
SAR 07/30/2011 8 Hattie Moseley Stakes $80,000 Artisanal 10
SAR 07/30/2011 9 Diana Stakes (Gr. 1) $500,000 Unbridled Humor 7
SAR 07/30/2011 10 Jim Dandy Stakes (Gr. 2) $500,000 Brilliant Speed 5
SAR 07/31/2011 2 Maiden Special Weight $46,000 Goldie's Reward 7
SAR 07/31/2011 3 Maiden Special Weight $45,000 Blue Sixty Four 8
SAR 07/31/2011 4 Maiden Claiming $35,000 Moreforyourmoney 5
SAR 07/31/2011 7 Claiming $31,120 Never Right Joey 1
SAR 07/31/2011 8 Fourstardave Handicap (Gr. 2) $150,000 Sidney's Candy 1
SAR 07/31/2011 9 Ruffian Invitational Handicap (Gr. 1) $250,000 Dynazaper 7
SAR 07/31/2011 10 Allowance Optional Claiming $49,000 Writingonthewall 1
SAR 08/01/2011 1 Claiming $25,200 Moshe Diane 5
SAR 08/01/2011 2 Smart N Fancy Stakes $78,000 Ahvee's Destiny 1
SAR 08/01/2011 3 Maiden Special Weight $48,000 Mightylover 2
SAR 08/01/2011 4 Maiden Claiming $28,080 Play It Smart 4
SAR 08/01/2011 5 Allowance $54,000 Counterparty 5
SAR 08/01/2011 7 Rachel Alexandra Stakes $78,000 Katy Now 3
SAR 08/01/2011 8 Amsterdam Stakes (Gr. 2) $150,000 Travelin Man 7
SAR 08/03/2011 1 Allowance $55,000 Speedy's Gal 6
SAR 08/03/2011 2 Maiden Special Weight $52,000 Hunt Crossing 1
SAR 08/03/2011 4 Optional Claiming $54,000 System Ready 4
SAR 08/03/2011 6 Starter Handicap $48,000 Unbridled Heat 2
SAR 08/03/2011 8 John Morrissey Stakes $77,000 Ibboyee 1
SAR 08/03/2011 9 Claiming $51,000 Argentine Talisman 1
SAR 08/04/2011 4 Maiden Special Weight $45,000 Quiet Ending 2
SAR 08/04/2011 5 Maiden Claiming $34,000 Not Close 6
SAR 08/04/2011 6 Starter Handicap $46,000 To the Point (ARG) 3
SAR 08/04/2011 8 Maiden Special Weight $57,000 Humadea (GB) 1
SAR 08/04/2011 9 Claiming $35,000 Estimate (FR) 8
SAR 08/05/2011 2 Maiden Claiming $46,000 Heather's Feather 4
SAR 08/05/2011 3 Madame Jumel Stakes $77,000 Acronym 2
SAR 08/05/2011 4 Maiden Special Weight $55,000 Coral Glade 10
SAR 08/05/2011 5 Claiming $35,000 St. Lucy 6
SAR 08/05/2011 6 Maiden Claiming $27,120 Mr Ames 1
SAR 08/05/2011 7 John's Call Stakes $81,000 Romp (ARG) 9
SAR 08/05/2011 9 Maiden Special Weight $45,000 Adriatic Spirit 3
SAR 08/06/2011 1 Allowance Optional Claiming $58,000 Tahoe Lake (BRZ) 3
SAR 08/06/2011 2 Maiden Special Weight $56,000 Longwood Lane 2
SAR 08/06/2011 3 Maiden Special Weight $54,000 Street Fight 9
SAR 08/06/2011 4 Claiming $34,000 Aprilmayjune 5
SAR 08/06/2011 5 Maiden Special Weight $55,000 Katz My Song 1
SAR 08/06/2011 7 Allowance Optional Claiming $56,000 Bachhaus 4
SAR 08/06/2011 8 De La Rose Stakes $80,000 Evading Tempete (GB) 3
SAR 08/06/2011 9 Test Stakes (Gr. 1) $250,000 Pomeroys Pistol 2
SAR 08/06/2011 10 Whitney Invitational Handicap (Gr. 1) $750,000 Morning Line 11
SAR 08/07/2011 1 Allowance Optional Claiming $54,000 Freud's Notebook 7
SAR 08/07/2011 2 Maiden Special Weight $43,000 Victory Island 1
SAR 08/07/2011 4 Maiden Special Weight $51,000 Purple Cat 3
SAR 08/07/2011 6 Allowance $54,000 Wanstead 4
SAR 08/07/2011 7 Allowance $48,000 Gambling Geraldine 5
SAR 08/07/2011 8 Maiden Special Weight $54,000 Crespano 4
SAR 08/07/2011 9 Honorable Miss Handicap (Gr. 2) $150,000 Irish Gypsy 4
SAR 08/07/2011 10 Alfred G. Vanderbilt Handicap (Gr. 1) $250,000 Trappe Shot 2
SAR 08/08/2011 1 Gleaming Stakes $78,000 Canaveral (GB) 2
SAR 08/08/2011 2 Maiden Special Weight $41,000 Bay Park Boy 1
SAR 08/08/2011 4 Maiden Special Weight $52,000 Anonymous Donor 3
SAR 08/08/2011 5 Maiden Special Weight $53,000 Maria's Own 3
SAR 08/08/2011 8 Allowance $53,400 Letshootpool 5
SAR 08/08/2011 9 Allowance Optional Claiming $56,000 King Rock 7
SAR 08/08/2011 10 Claiming $35,200 Cristiano (PER) 7
SAR 08/10/2011 1 Allowance Optional Claiming $48,000 Strong Impact 4
SAR 08/10/2011 3 Claiming $22,200 D' Bulldog 2
SAR 08/10/2011 4 Maiden Special Weight $52,000 Raconteur 5
SAR 08/10/2011 5 Signature Stallion Waya Stakes $79,000 Freedom Rings 9
SAR 08/10/2011 7 Claiming $32,000 The Man Uptown 1
SAR 08/10/2011 8 Claiming $55,000 Sam Sparkle 2
SAR 08/11/2011 4 Allowance Optional Claiming $55,000 Law Enforcement 2